Back to catalog

FENGYUN 1C DEB

AliveSSO
NORAD 29958·DEBRIS·🇨🇳 China

Launched May 10, 1999 from Taiyuan Satellite Launch Center

Loading…

Next Passes (next 24 hours)

TLE

FreshSource: Space-Track

Epoch: Sep 14, 2026, 06:23 UTC

1 29958U 99025KG  26257.26663601  .00000271  00000-0  16077-3 0  9994
2 29958  98.6608 268.5049 0053396 264.3445  95.1638 14.14699377 13401

Track FENGYUN 1C DEB in real time with AllMySat

Download on the App Store